EW1714 Weather Reports


Display with metric or nautical units.
time (UTC)temp
F
wind
direction
speed
MPH
gust
MPH
rain 1hr
in
rain 24hr
in
rain mn
in
humidity
%
barometer
mb
20260904160038 87 332 1.0 8.0 0.00 0.00 0.00 55 1010.0
20260904155504 87 357 0.0 8.0 0.00 0.00 0.00 57 1010.0
20260904155004 86 347 2.0 8.0 0.00 0.00 0.00 57 1010.2
20260904154506 86 1 2.0 8.0 0.00 0.00 0.00 57 1010.3
20260904154003 86 316 0.0 5.0 0.00 0.00 0.00 58 1010.3
20260904153503 87 307 0.0 5.0 0.00 0.00 0.00 55 1010.3
20260904153012 87 300 0.0 4.0 0.00 0.00 0.00 57 1010.4
20260904152514 86 355 0.0 5.0 0.00 0.00 0.00 58 1010.4
20260904152006 86 331 0.0 8.0 0.00 0.00 0.00 60 1010.3
20260904151535 86 360 0.0 8.0 0.00 0.00 0.00 60 1010.3
20260904151012 85 1 2.0 8.0 0.00 0.00 0.00 59 1010.3
20260904150511 85 1 2.0 8.0 0.00 0.00 0.00 60 1010.3
20260904150026 85 1 1.0 8.0 0.00 0.00 0.00 62 1010.4
20260904145512 84 2 0.0 5.0 0.00 0.00 0.00 65 1010.3
20260904145012 83 1 0.0 5.0 0.00 0.00 0.00 66 1010.4
20260904144531 82 133 0.0 5.0 0.00 0.00 0.00 67 1010.4
20260904144016 81 325 0.0 6.0 0.00 0.00 0.00 68 1010.5
20260904143503 79 360 0.0 6.0 0.00 0.00 0.00 71 1010.6
20260904143011 78 348 0.0 6.0 0.00 0.00 0.00 75 1010.8
20260904142504 77 350 1.0 6.0 0.00 0.00 0.00 77 1010.7
20260904142004 76 1 0.0 5.0 0.00 0.00 0.00 81 1010.8
20260904141515 74 8 0.0 5.0 0.00 0.00 0.00 83 1010.7
20260904141006 73 1 0.0 3.0 0.00 0.00 0.00 85 1010.9
20260904140510 72 54 0.0 5.0 0.00 0.00 0.00 87 1010.8
20260904140024 72 1 1.0 5.0 0.00 0.00 0.00 88 1010.8
20260904135516 71 7 0.0 5.0 0.00 0.00 0.00 89 1010.8
20260904135013 70 18 0.0 3.0 0.00 0.00 0.00 89 1010.8
20260904134528 70 359 0.0 2.0 0.00 0.00 0.00 90 1010.9
20260904134015 70 60 0.0 2.0 0.00 0.00 0.00 91 1010.9
20260904133514 69 214 0.0 0.0 0.00 0.00 0.00 90 1010.9
20260904133030 69 214 0.0 0.0 0.00 0.00 0.00 91 1010.8
20260904132520 68 126 0.0 2.0 0.00 0.00 0.00 91 1010.9
20260904132005 68 186 0.0 2.0 0.00 0.00 0.00 92 1011.0
20260904131510 68 353 0.0 0.0 0.00 0.00 0.00 93 1011.0
20260904131005 68 353 0.0 0.0 0.00 0.00 0.00 93 1011.1
20260904130505 68 353 0.0 0.0 0.00 0.00 0.00 93 1011.0
20260904130016 67 353 0.0 3.0 0.00 0.00 0.00 93 1011.0
20260904125510 67 353 0.0 3.0 0.00 0.00 0.00 94 1011.0
20260904125010 67 356 0.0 3.0 0.00 0.00 0.00 94 1011.0
20260904124524 67 356 0.0 0.0 0.00 0.00 0.00 94 1011.0
20260904124010 67 356 0.0 0.0 0.00 0.00 0.00 94 1011.1
20260904123516 67 356 0.0 0.0 0.00 0.00 0.00 95 1011.0
20260904123028 67 356 0.0 0.0 0.00 0.00 0.00 95 1011.0
20260904122515 67 356 0.0 0.0 0.00 0.00 0.00 95 1011.0
20260904122017 66 356 0.0 0.0 0.00 0.00 0.00 95 1011.0
20260904121531 66 356 0.0 3.0 0.00 0.00 0.00 95 1011.0
20260904121021 66 356 0.0 3.0 0.00 0.00 0.00 95 1011.0
20260904120517 66 338 0.0 0.0 0.00 0.00 0.00 95 1010.8
20260904120016 66 338 0.0 0.0 0.00 0.00 0.00 96 1010.8
20260904115507 66 338 0.0 1.0 0.00 0.00 0.00 96 1010.8
20260904115011 66 338 0.0 3.0 0.00 0.00 0.00 95 1010.8
20260904114535 66 337 0.0 3.0 0.00 0.00 0.00 96 1010.8
20260904114012 66 332 0.0 0.0 0.00 0.00 0.00 96 1010.9
20260904113513 66 331 0.0 0.0 0.00 0.00 0.00 96 1010.8
20260904113028 66 311 0.0 0.0 0.00 0.00 0.00 96 1010.9
20260904112514 66 311 0.0 0.0 0.00 0.00 0.00 96 1010.8
20260904112016 66 311 0.0 0.0 0.00 0.00 0.00 96 1010.8
20260904111527 66 311 0.0 0.0 0.00 0.00 0.00 96 1010.8
20260904111014 66 311 0.0 0.0 0.00 0.00 0.00 96 1010.9
20260904110515 66 311 0.0 0.0 0.00 0.00 0.00 96 1010.8
20260904110035 66 311 0.0 0.0 0.00 0.00 0.00 96 1010.8
20260904105519 66 311 0.0 3.0 0.00 0.00 0.00 96 1010.9
20260904105015 66 311 0.0 3.0 0.00 0.00 0.00 96 1010.7
20260904104515 66 230 0.0 0.0 0.00 0.00 0.00 96 1010.7
20260904104009 66 230 0.0 0.0 0.00 0.00 0.00 96 1010.7
20260904103507 66 230 0.0 0.0 0.00 0.00 0.00 96 1010.5
20260904103023 66 230 0.0 0.0 0.00 0.00 0.00 96 1010.5
20260904102511 66 230 0.0 0.0 0.00 0.00 0.00 96 1010.5
20260904102014 66 230 0.0 0.0 0.00 0.00 0.00 96 1010.5
20260904101527 66 230 0.0 0.0 0.00 0.00 0.00 96 1010.4
20260904101015 66 230 0.0 0.0 0.00 0.00 0.00 96 1010.4
20260904100514 66 230 0.0 0.0 0.00 0.00 0.00 96 1010.3
20260904100032 66 230 0.0 0.0 0.00 0.00 0.00 96 1010.2
20260904095516 66 230 0.0 0.0 0.00 0.00 0.00 96 1010.2
20260904095017 66 230 0.0 0.0 0.00 0.00 0.00 96 1010.2
20260904094514 66 230 0.0 0.0 0.00 0.00 0.00 96 1010.2
20260904094001 66 230 0.0 0.0 0.00 0.00 0.00 96 1010.2
20260904093501 66 230 0.0 0.0 0.00 0.00 0.00 96 1010.3
20260904093003 66 230 0.0 0.0 0.00 0.00 0.00 96 1010.2
20260904092504 66 230 0.0 0.0 0.00 0.00 0.00 96 1010.3
20260904092002 66 230 0.0 0.0 0.00 0.00 0.00 96 1010.3
20260904091504 66 230 0.0 0.0 0.00 0.00 0.00 96 1010.3
20260904091004 66 230 0.0 0.0 0.00 0.00 0.00 96 1010.3
20260904090505 66 230 0.0 0.0 0.00 0.00 0.00 96 1010.3
20260904090007 66 230 0.0 0.0 0.00 0.00 0.00 96 1010.2
20260904085503 66 230 0.0 0.0 0.00 0.00 0.00 96 1010.3
20260904085003 66 230 0.0 0.0 0.00 0.00 0.00 96 1010.2
20260904084510 66 230 0.0 0.0 0.00 0.00 0.00 96 1010.2
20260904084005 66 230 0.0 0.0 0.00 0.00 0.00 96 1010.2
20260904083509 66 230 0.0 0.0 0.00 0.00 0.00 96 1010.1
20260904083017 66 230 0.0 0.0 0.00 0.00 0.00 96 1010.2
20260904082502 66 230 0.0 0.0 0.00 0.00 0.00 96 1010.2
20260904082004 66 230 0.0 0.0 0.00 0.00 0.00 96 1010.3
20260904081505 66 230 0.0 0.0 0.00 0.00 0.00 96 1010.4
20260904081003 66 230 0.0 0.0 0.00 0.00 0.00 96 1010.6
20260904080508 66 230 0.0 0.0 0.00 0.00 0.00 96 1010.6
20260904080005 66 230 0.0 0.0 0.00 0.00 0.00 96 1010.6
20260904075504 66 230 0.0 0.0 0.00 0.00 0.00 96 1010.6
20260904075015 66 230 0.0 0.0 0.00 0.00 0.00 96 1010.6
20260904074509 66 230 0.0 0.0 0.00 0.00 0.00 96 1010.7
20260904074004 66 230 0.0 0.0 0.00 0.00 0.00 96 1010.7
20260904073504 67 230 0.0 0.0 0.00 0.00 0.00 96 1010.6
20260904073011 67 230 0.0 0.0 0.00 0.00 0.00 96 1010.6
20260904072505 67 230 0.0 0.0 0.00 0.00 0.00 96 1010.7
20260904072008 67 230 0.0 0.0 0.00 0.00 0.00 96 1010.7
20260904071530 67 230 0.0 0.0 0.00 0.00 0.00 96 1010.6
20260904071011 67 230 0.0 0.0 0.00 0.00 0.00 96 1010.7
20260904070503 67 230 0.0 0.0 0.00 0.00 0.00 96 1010.7
20260904070004 67 230 0.0 0.0 0.00 0.00 0.00 96 1010.7
20260904065512 67 230 0.0 0.0 0.00 0.00 0.00 96 1010.7
20260904065003 67 230 0.0 0.0 0.00 0.00 0.00 96 1010.7
20260904064504 67 230 0.0 0.0 0.00 0.00 0.00 96 1010.8
20260904064004 67 230 0.0 0.0 0.00 0.00 0.00 96 1010.8
20260904063504 67 230 0.0 0.0 0.00 0.00 0.00 96 1010.9
20260904063008 67 230 0.0 0.0 0.00 0.00 0.00 96 1010.9
20260904062508 67 230 0.0 0.0 0.00 0.00 0.00 96 1010.9
20260904062004 67 230 0.0 0.0 0.00 0.00 0.00 96 1010.9
20260904061514 67 230 0.0 0.0 0.00 0.00 0.00 96 1010.9
20260904061006 67 230 0.0 0.0 0.00 0.00 0.00 96 1011.1
20260904060511 67 230 0.0 0.0 0.00 0.00 0.00 96 1011.1
20260904060018 67 230 0.0 0.0 0.00 0.00 0.00 96 1011.3
20260904055511 67 230 0.0 0.0 0.00 0.00 0.00 96 1011.4
20260904055014 67 230 0.0 0.0 0.00 0.00 0.00 96 1011.6
20260904054504 67 230 0.0 0.0 0.00 0.00 0.00 96 1011.5
20260904054016 67 230 0.0 0.0 0.00 0.00 0.00 96 1011.6
20260904053503 67 230 0.0 0.0 0.00 0.00 0.00 95 1011.6
20260904053007 67 230 0.0 0.0 0.00 0.00 0.00 95 1011.7
20260904052505 67 230 0.0 0.0 0.00 0.00 0.00 95 1011.6
20260904052005 67 230 0.0 0.0 0.00 0.00 0.00 95 1011.7
20260904051511 67 230 0.0 0.0 0.00 0.00 0.00 95 1011.8
20260904051009 67 230 0.0 0.0 0.00 0.00 0.00 95 1011.8
20260904050508 67 230 0.0 1.0 0.00 0.00 0.00 95 1011.8
20260904050016 67 230 0.0 1.0 0.00 0.00 0.00 95 1011.9
20260904045510 67 230 0.0 0.0 0.00 0.00 0.00 95 1011.8
20260904045012 67 230 0.0 0.0 0.00 0.00 0.00 95 1011.8
20260904044539 67 230 0.0 0.0 0.00 0.00 0.00 96 1011.8
20260904044013 67 230 0.0 0.0 0.00 0.00 0.00 96 1011.9
20260904043514 67 230 0.0 0.0 0.00 0.00 0.00 95 1012.0
20260904043004 67 230 0.0 0.0 0.00 0.00 0.00 95 1011.9
20260904042504 67 223 0.0 0.0 0.00 0.00 0.00 95 1012.0
20260904042004 66 223 0.0 0.0 0.00 0.00 0.00 95 1011.9
20260904041508 66 223 0.0 0.0 0.00 0.00 0.00 95 1012.0
20260904041006 67 223 0.0 0.0 0.00 0.00 0.00 95 1012.1
20260904040504 67 223 0.0 0.0 0.00 0.00 0.00 95 1012.0
20260904040012 67 223 0.0 0.0 0.00 0.00 0.00 94 1012.1
20260904035508 67 223 0.0 0.0 0.00 0.00 0.00 94 1012.2
20260904035008 67 223 0.0 0.0 0.00 0.00 0.00 94 1012.3
20260904034524 67 223 0.0 0.0 0.00 0.00 0.00 94 1012.3
20260904034010 67 223 0.0 0.0 0.00 0.00 0.00 94 1012.3
20260904033513 67 223 0.0 0.0 0.00 0.00 0.00 94 1012.2
20260904033028 67 223 0.0 0.0 0.00 0.00 0.00 94 1012.2
20260904032514 67 223 0.0 0.0 0.00 0.00 0.00 94 1012.1
20260904032014 67 223 0.0 0.0 0.00 0.00 0.00 94 1012.1
20260904031528 68 223 0.0 0.0 0.00 0.00 0.00 94 1012.3
20260904031005 68 223 0.0 0.0 0.00 0.00 0.00 94 1012.3
20260904030506 68 223 0.0 0.0 0.00 0.00 0.00 94 1012.2
20260904030011 68 223 0.0 0.0 0.00 0.00 0.00 94 1012.2
20260904025506 68 223 0.0 0.0 0.00 0.00 0.00 94 1012.3
20260904025007 68 223 0.0 0.0 0.00 0.00 0.00 94 1012.2
20260904024513 68 223 0.0 0.0 0.00 0.00 0.00 94 1012.2
20260904024011 68 223 0.0 0.0 0.00 0.00 0.00 94 1012.3
20260904023510 68 223 0.0 0.0 0.00 0.00 0.00 94 1012.3
20260904023024 68 223 0.0 0.0 0.00 0.00 0.00 94 1012.4
20260904022510 68 223 0.0 0.0 0.00 0.00 0.00 94 1012.6
20260904022012 68 223 0.0 0.0 0.00 0.00 0.00 94 1012.5
20260904021527 68 223 0.0 0.0 0.00 0.00 0.00 94 1012.5
20260904021016 69 223 0.0 0.0 0.00 0.00 0.00 94 1012.5
20260904020516 69 223 0.0 0.0 0.00 0.00 0.00 94 1012.6
20260904020031 69 223 0.0 0.0 0.00 0.00 0.00 93 1012.6
20260904015504 69 223 0.0 0.0 0.00 0.00 0.00 93 1012.7
20260904015006 69 223 0.0 0.0 0.00 0.00 0.00 93 1012.8
20260904014518 69 223 0.0 0.0 0.00 0.00 0.00 93 1012.7
20260904014009 69 223 0.0 0.0 0.00 0.00 0.00 93 1012.7
20260904013508 69 223 0.0 0.0 0.00 0.00 0.00 93 1012.7
20260904013029 69 223 0.0 0.0 0.00 0.00 0.00 93 1012.7
20260904012515 69 223 0.0 0.0 0.00 0.00 0.00 93 1012.6
20260904012012 69 223 0.0 0.0 0.00 0.00 0.00 92 1012.7
20260904011536 69 223 0.0 0.0 0.00 0.00 0.00 92 1012.8
20260904011013 69 223 0.0 0.0 0.00 0.00 0.00 92 1012.8
20260904010516 70 223 0.0 0.0 0.00 0.00 0.00 92 1012.7
20260904010040 70 223 0.0 0.0 0.00 0.00 0.00 92 1012.6
20260904005515 70 223 0.0 0.0 0.00 0.00 0.00 92 1012.6
20260904005014 70 223 0.0 0.0 0.00 0.00 0.00 92 1012.6
20260904004536 70 223 0.0 0.0 0.00 0.00 0.00 92 1012.4
20260904004016 70 223 0.0 0.0 0.00 0.00 0.00 92 1012.5
20260904003510 70 223 0.0 0.0 0.00 0.00 0.00 91 1012.5
20260904003017 70 223 0.0 0.0 0.00 0.00 0.00 91 1012.4
20260904002510 70 223 0.0 0.0 0.00 0.00 0.00 91 1012.4
20260904002009 70 223 0.0 0.0 0.00 0.00 0.00 91 1012.2
20260904001523 71 223 0.0 0.0 0.00 0.00 0.00 91 1012.2
20260904001019 71 223 0.0 0.0 0.00 0.00 0.00 90 1012.1
20260904000514 71 223 0.0 0.0 0.00 0.00 0.00 90 1012.0
20260904000028 71 223 0.0 0.0 0.00 0.00 0.00 90 1012.0
20260903235512 71 223 0.0 0.0 0.00 0.00 0.00 89 1012.0
20260903235016 72 223 0.0 0.0 0.00 0.00 0.00 89 1012.1
20260903234534 72 223 0.0 0.0 0.00 0.00 0.00 89 1012.1
20260903234016 72 223 0.0 0.0 0.00 0.00 0.00 89 1012.1
20260903233520 72 223 0.0 0.0 0.00 0.00 0.00 88 1012.0
20260903233033 72 223 0.0 0.0 0.00 0.00 0.00 88 1011.9
20260903232517 73 223 0.0 0.0 0.00 0.00 0.00 88 1012.0
20260903232008 73 223 0.0 0.0 0.00 0.00 0.00 87 1011.9
20260903231518 73 223 0.0 0.0 0.00 0.00 0.00 87 1012.0
20260903231008 73 223 0.0 0.0 0.00 0.00 0.00 87 1012.2
20260903230511 73 223 0.0 0.0 0.00 0.00 0.00 87 1012.2
20260903230025 74 223 0.0 0.0 0.00 0.00 0.00 86 1012.3
20260903225514 74 223 0.0 0.0 0.00 0.00 0.00 86 1012.2
20260903225015 74 223 0.0 0.0 0.00 0.00 0.00 85 1012.0
20260903224528 74 223 0.0 0.0 0.00 0.00 0.00 85 1011.9
20260903224019 74 223 0.0 0.0 0.00 0.00 0.00 85 1011.8
20260903223515 75 223 0.0 0.0 0.00 0.00 0.00 84 1011.9
20260903223038 75 223 0.0 0.0 0.00 0.00 0.00 84 1012.0
20260903222520 75 223 0.0 0.0 0.00 0.00 0.00 84 1012.3
20260903222021 75 223 0.0 0.0 0.00 0.00 0.00 83 1012.4
20260903221532 75 223 0.0 0.0 0.00 0.00 0.00 83 1012.5
20260903221016 76 223 0.0 0.0 0.00 0.00 0.00 82 1012.5
20260903220509 76 223 0.0 0.0 0.00 0.00 0.00 80 1012.5
20260903220032 76 223 0.0 0.0 0.00 0.00 0.00 82 1012.5
20260903215513 76 223 0.0 0.0 0.00 0.00 0.00 81 1012.4
20260903215010 76 223 0.0 0.0 0.00 0.00 0.00 81 1012.4
20260903214528 76 223 0.0 0.0 0.00 0.00 0.00 80 1012.4
20260903214004 76 223 0.0 0.0 0.00 0.00 0.00 79 1012.6
20260903213504 76 324 0.0 0.0 0.00 0.00 0.00 79 1012.5
20260903213008 76 324 0.0 0.0 0.00 0.00 0.00 80 1012.4
20260903212506 76 324 0.0 0.0 0.00 0.00 0.00 78 1012.4
20260903212005 76 321 0.0 0.0 0.00 0.00 0.00 78 1012.5
20260903211519 76 321 0.0 0.0 0.00 0.00 0.00 77 1012.5
20260903211006 77 321 0.0 0.0 0.00 0.00 0.00 77 1012.5
20260903210506 77 321 0.0 0.0 0.00 0.00 0.00 78 1012.5
20260903210001 77 321 0.0 0.0 0.00 0.00 0.00 77 1012.5
20260903205507 77 321 0.0 0.0 0.00 0.00 0.00 77 1012.5
20260903205002 77 321 0.0 0.0 0.00 0.00 0.00 77 1012.5
20260903204501 77 321 0.0 0.0 0.00 0.00 0.00 76 1012.5
20260903204009 77 321 0.0 0.0 0.00 0.00 0.00 74 1012.5
20260903203502 78 321 0.0 0.0 0.00 0.00 0.00 75 1012.5
20260903203006 78 321 0.0 0.0 0.00 0.00 0.00 74 1012.4
20260903202504 78 321 0.0 0.0 0.00 0.00 0.00 75 1012.5
20260903202004 79 321 0.0 0.0 0.00 0.00 0.00 73 1012.5
20260903201507 79 307 0.0 0.0 0.00 0.00 0.00 73 1012.5
20260903201006 79 307 0.0 0.0 0.00 0.00 0.00 74 1012.6
20260903200506 78 196 0.0 0.0 0.00 0.00 0.00 76 1012.7
20260903200014 78 196 0.0 0.0 0.00 0.00 0.00 74 1012.6
20260903195506 78 196 0.0 0.0 0.00 0.00 0.00 74 1012.7
20260903195011 78 196 0.0 0.0 0.00 0.00 0.00 76 1012.9
20260903194517 78 196 0.0 0.0 0.00 0.00 0.00 74 1013.0
20260903194005 78 196 0.0 0.0 0.00 0.00 0.00 75 1013.0
20260903193502 78 197 0.0 0.0 0.00 0.00 0.00 76 1013.0
20260903193005 77 197 0.0 0.0 0.00 0.00 0.00 77 1013.1
20260903192502 77 196 0.0 0.0 0.00 0.00 0.00 75 1013.1
20260903192004 77 196 0.0 0.0 0.00 0.00 0.00 76 1013.1
20260903191508 77 196 0.0 0.0 0.00 0.00 0.00 76 1013.2
20260903191004 76 196 0.0 0.0 0.00 0.00 0.00 76 1013.2
20260903190505 75 359 0.0 0.0 0.00 0.00 0.00 79 1013.2
20260903190012 75 359 0.0 1.0 0.00 0.00 0.00 79 1013.3
20260903185508 74 359 0.0 1.0 0.00 0.00 0.00 81 1013.3
20260903185007 74 359 0.0 1.0 0.00 0.00 0.00 80 1013.4
20260903184518 74 360 0.0 0.0 0.00 0.00 0.00 79 1013.6
20260903184011 74 360 0.0 0.0 0.00 0.00 0.00 80 1013.7
20260903183510 74 360 0.0 0.0 0.00 0.00 0.00 80 1013.8
20260903183020 74 360 0.0 6.0 0.00 0.00 0.00 81 1013.8
20260903182503 74 360 0.0 6.0 0.00 0.00 0.00 80 1013.7
20260903182003 73 359 0.0 5.0 0.00 0.00 0.00 81 1013.8
20260903181519 73 354 0.0 5.0 0.00 0.00 0.00 82 1013.8
20260903181015 72 354 0.0 5.0 0.00 0.00 0.00 83 1013.7
20260903180504 72 358 1.0 5.0 0.00 0.00 0.00 83 1013.9
20260903180012 72 1 0.0 4.0 0.00 0.00 0.00 83 1014.0
20260903175504 72 359 0.0 4.0 0.00 0.00 0.00 84 1014.0
20260903175005 72 359 0.0 4.0 0.00 0.00 0.00 83 1014.1
20260903174529 72 358 0.0 2.0 0.00 0.00 0.00 83 1014.1
20260903174006 72 358 0.0 2.0 0.00 0.00 0.00 82 1014.3
20260903173506 72 356 0.0 2.0 0.00 0.00 0.00 83 1014.3
20260903173024 72 352 0.0 2.0 0.00 0.00 0.00 82 1014.3
20260903172510 72 349 0.0 2.0 0.00 0.00 0.00 82 1014.4
20260903172012 72 333 0.0 0.0 0.00 0.00 0.00 82 1014.3
20260903171529 72 333 0.0 5.0 0.00 0.00 0.00 82 1014.3
20260903171011 72 332 0.0 5.0 0.00 0.00 0.00 83 1014.2
20260903170503 72 339 0.0 7.0 0.00 0.00 0.00 84 1014.1
20260903170004 72 359 0.0 7.0 0.00 0.00 0.00 84 1014.1
20260903165503 71 354 0.0 7.0 0.00 0.00 0.00 85 1014.1
20260903165004 71 4 0.0 5.0 0.00 0.00 0.00 86 1014.1
20260903164509 70 360 0.0 5.0 0.00 0.00 0.00 86 1014.1
20260903164006 70 359 0.0 3.0 0.00 0.00 0.00 88 1014.1
20260903163506 69 359 0.0 0.0 0.00 0.00 0.00 87 1014.1
20260903163013 69 359 0.0 0.0 0.00 0.00 0.00 89 1014.2
20260903162508 69 359 0.0 5.0 0.00 0.00 0.00 89 1014.2
20260903162007 69 359 0.0 5.0 0.00 0.00 0.00 88 1014.3
20260903161524 69 359 1.0 5.0 0.00 0.00 0.00 89 1014.3
20260903161011 68 359 0.0 4.0 0.00 0.00 0.00 89 1014.3
20260903160513 68 359 0.0 4.0 0.00 0.00 0.00 89 1014.5